Starlink 31691

operational
NORAD ID: 59856 Int'l Des: 2024-097 Owner: SPXS Country: US Constellation: starlink
LEOCIRCULAR

Starlink 31691について

説明を読み込み中...

リアルタイム位置

3D地球を読み込み中...

次回通過

高度履歴

Altitude vs Time

uPlot chart will show altitude changes over time

軌道要素

1 59856U 24097X 26035.16029424 -.00002231 00000-0 -71579-4 0 9992
2 59856 43.0010 103.3028 0000572 294.5246 65.5546 15.27575631 96790
Epoch: Feb 4, 2026 • Age: 7 hours

現在のステータス

高度 484.6 km
速度 7.63 km/s
衛星直下点 34.62°N, 140.95°W
打ち上げ日 May 23, 2024
運用期間 1.7 years
タイプ internet

技術仕様

分類 Payload
質量 730.00 kg
乾燥質量 700.00 kg
総質量 730.00 kg
長さ 0.30 m
直径 4.10 m
スパン 29.00 m
形状 Box + pan
製造者 SPXS
バスタイプ Starlink V2M
フェーズステータス In Orbit
所有者/国 SPXS/US

大規模コンステレーション

Loading constellations...